Hourly Data Report for July 02, 2022

TORONTO CITY
ONTARIO
Current Station Operator: ECCC - MSC

43°40'00.000" N
79°24'00.000" W
112.50 m
6158355
71508
XTO

Download Data

Hourly Data (July 2022)
Hourly Data Report for July 2, 2022
TIME
LST
Temp Definition
°C
Dew Point Definition
°C
Rel Hum Definition
%
Precip. Amount Definition
mm

Wind Dir Definition
10's deg

Wind Spd Definition
km/h
Visibility Definition
km
Stn Press Definition
kPa
Hmdx Definition


Wind Chill Definition


Weather Definition


00:00 21.8 12.5 56 0.0       99.81     LegendNANA
01:00 21.3 10.7 51 0.0       99.78     LegendNANA
02:00 20.3 7.8 45 0.0       99.80     LegendNANA
03:00 18.7 7.2 47 0.0       99.83     LegendNANA
04:00 16.5 8.3 59 0.0       99.87     LegendNANA
05:00 15.8 8.9 64 0.0       99.91     LegendNANA
06:00 15.8 10.0 68 0.0       99.98     LegendNANA
07:00 19.3 8.1 48 0.0       100.04     LegendNANA
08:00 22.0 7.8 40 0.0       100.07     LegendNANA
09:00 24.4 8.3 36 0.0       100.04 25   LegendNANA
10:00 24.5 9.2 38 0.0       100.04 25   LegendNANA
11:00 24.9 10.2 39 0.0       100.06 26   LegendNANA
12:00 25.5 8.5 34 0.0       100.02 26   LegendNANA
13:00 25.6 9.7 37 0.0       99.98 27   LegendNANA
14:00 27.4 10.8 36 0.0       99.95 29   LegendNANA
15:00 28.5 10.6 33 0.0       99.96 30   LegendNANA
16:00 28.3 9.8 31 0.0       99.95 29   LegendNANA
17:00 27.6 8.3 30 0.0       99.94 28   LegendNANA
18:00 26.7 7.3 29 0.0       99.97 27   LegendNANA
19:00 25.5 5.9 28 0.0       100.03 25   LegendNANA
20:00 24.2 5.4 30 0.0       100.08     LegendNANA
21:00 22.0 7.4 39 0.0       100.19     LegendNANA
22:00 21.6 8.7 44 0.0       100.23     LegendNANA
23:00 20.7 6.5 40 0.0       100.30     LegendNANA

Notes on Data Quality.

Legend

  • E = Estimated
  • M = Missing
  • NA = Not Available*
  • [empty] = Indicates an unobserved value
Date modified: